Tracking 23114 objects as of 14-May-2021
HD Live streaming from Space Station
objects crossing your sky now

YAOGAN 6 DEB


YAOGAN 6 DEB is no longer on orbit


NORAD ID: 40065
Int'l Code: 2009-021G
Perigee: N/A
Apogee: N/A
Inclination: N/A
Period: N/A
Semi major axis: N/A
RCS: N/A
Launch date: April 22, 2009
Source: People's Republic of China (PRC)
Launch site: Taiyaun Space Center, China (TSC)
Decay date: 2014-11-19

Note: This is SATELLITE DEBRIS
aabbcc
Your satellite tracking list
Your tracking list is empty




NASA's NSSDC Master Catalog

Two Line Element Set (TLE):
1 40065U 09021G   14323.96831897  .06056647  68429+0  12902-1 0  9998
2 40065 097.2194 036.5507 0007601 277.9224 082.0512 16.16309167 21373
Source of the keplerian elements: AFSPC